Location: Gajan
(43.0218°N, 1.1244°E)
Time: 03:10:09
(UTC+00:00)

Cosmos 1553 Rocket - Pass Details

Date: 22 April 2021
Orbit: 942 x 1007 km, 82.9° (Epoch: 15 May)

Event Time Altitude Azimuth Distance (km) Brightness Sun altitude
Exits shadow 22:33:01 52° 269° (W) 1,161 4.4 -31.5°
Maximum altitude 22:33:23 53° 282° (WNW) 1,151 4.4 -31.5°
Drops below altitude 10° 22:39:21 10° 359° (N) 2,681 7.1 -31.9°
Sets 22:41:56 0° 4° (N) 3,637 7.9 -32.1°
